Temperature
17 17 18 18 15 13 14 15 17 19 21 23 23 23 22 21 21 21 20 20 20 20 19 18 18 18 18 17 17 17 17 17 16 16 16 15 15 15 15 15 14 14 14 14 14 14 14 14 14
17 17 17 17 13 13 14 15 17 18 21 23 23 23 22 21 21 21 20 20 20 20 19 19 19 19 18 18 18 18 18 17 17 16 16 15 15 15 15 15 14 14 14 14 14 14 14 14 14
16 17 17 13 13 13 15 17 18 20 22 23 23 23 22 21 22 22 21 20 20 20 19 19 19 19 19 18 18 18 18 18 17 16 16 15 15 15 15 15 15 14 14 14 13 13 13 14 14
16 16 15 12 13 14 15 17 18 19 22 23 23 22 21 21 22 22 22 20 20 20 19 19 18 19 19 19 19 19 18 18 17 16 16 15 15 15 15 15 15 14 14 14 13 13 14 14 14
15 15 13 12 13 14 15 17 19 19 20 23 23 21 21 21 21 22 22 21 20 20 19 18 18 18 19 19 19 19 19 18 17 16 16 15 15 15 15 15 15 14 14 14 14 14 14 14 14
14 12 11 12 13 15 15 19 19 19 21 23 23 20 20 21 21 21 21 21 20 20 19 18 17 18 18 18 19 19 19 18 17 16 16 15 15 15 15 15 15 15 14 14 14 14 14 14 14
13 10 11 12 14 14 17 19 19 18 19 22 23 19 19 20 20 20 20 19 19 19 18 18 17 17 17 18 18 19 19 18 18 17 16 15 15 15 15 15 15 15 15 14 14 14 14 14 14
14 11 12 12 13 15 17 19 21 20 20 23 23 19 19 20 19 19 18 18 18 18 18 18 18 17 17 17 18 18 18 18 18 17 16 15 15 15 15 15 15 15 15 15 14 14 14 14 14
14 11 11 13 14 15 18 18 20 21 21 22 22 22 22 20 19 18 18 17 17 17 18 18 17 17 17 17 17 17 18 18 17 17 16 15 15 15 15 15 15 15 14 14 14 14 14 14 13
13 10 12 14 15 16 17 18 18 19 20 20 21 21 21 20 19 19 18 18 18 18 17 17 17 17 17 17 17 17 17 17 17 17 16 15 15 15 14 14 14 14 14 14 14 14 13 13 13
11 11 13 15 16 17 17 17 18 18 18 19 19 20 20 20 19 19 19 19 19 19 18 18 17 17 17 17 17 16 16 17 17 16 16 15 15 14 14 14 14 14 14 14 13 13 13 13 13
12 12 14 16 16 16 16 16 16 17 18 18 18 19 19 19 19 19 19 19 19 19 18 18 18 17 17 17 17 16 16 16 16 16 16 15 15 15 14 14 14 14 13 13 13 13 13 13 13
11 13 14 15 15 15 16 16 15 16 18 18 18 18 18 19 19 19 19 19 19 19 19 18 18 18 17 17 16 16 16 16 16 16 16 15 15 15 14 14 13 13 13 13 13 13 13 13 13
12 13 13 14 14 15 15 15 15 16 18 18 18 18 18 18 19 18 18 18 18 18 19 18 18 18 17 17 17 16 16 16 15 15 15 15 15 14 14 13 13 13 13 13 12 12 12 12 12
13 12 12 13 14 14 15 13 13 16 17 17 18 18 18 18 19 19 19 19 19 18 18 18 18 18 18 17 17 17 16 16 15 15 15 15 14 14 14 13 13 13 12 12 12 12 12 12 12
12 11 11 12 13 14 13 12 13 16 15 15 16 17 18 18 19 19 19 19 19 19 18 18 18 18 18 18 17 17 16 16 15 15 15 14 14 14 13 13 13 12 12 12 12 12 12 12 12
10 9 10 11 12 12 12 11 12 15 15 14 15 16 17 18 18 18 19 19 19 19 19 19 18 18 18 18 18 17 17 16 16 15 15 14 14 13 13 13 13 12 12 12 12 12 12 12 12
9 9 10 10 12 12 11 11 12 14 14 14 15 16 16 17 18 18 18 18 18 19 19 19 18 18 18 18 17 17 17 16 16 15 15 14 14 13 13 13 12 12 12 12 12 12 12 12 12
10 10 10 10 11 11 11 10 11 12 12 13 14 15 16 16 17 17 17 18 18 18 18 18 18 18 18 17 17 17 17 16 16 15 15 15 14 14 13 13 12 12 12 12 12 12 12 12 12
10 9 9 10 11 11 10 10 10 11 11 13 14 14 15 16 17 17 17 17 17 17 18 18 18 18 18 18 18 17 17 17 17 16 16 15 14 14 13 13 13 12 12 12 12 12 12 12 11
9 9 9 10 9 9 9 9 9 10 11 12 13 14 15 15 16 16 17 17 17 17 17 17 17 17 17 17 17 17 17 17 16 16 15 15 14 14 13 13 13 12 12 12 12 12 12 11 11
9 10 10 9 8 7 7 7 8 9 9 11 12 14 15 15 16 16 16 16 16 17 17 17 17 17 17 17 17 17 17 17 17 16 16 15 15 14 14 13 13 12 12 12 12 11 11 11 11
9 9 9 8 7 6 6 6 8 8 10 11 11 14 16 16 16 16 16 16 16 16 16 16 16 16 17 16 16 16 17 17 17 17 16 16 15 14 14 13 12 12 12 11 11 11 11 11 10
9 8 7 6 5 5 6 5 7 8 10 12 12 14 15 16 16 15 15 15 15 16 16 16 16 16 16 16 16 16 16 16 16 16 16 16 15 14 14 13 12 12 11 11 11 10 10 10 10
8 6 6 6 5 5 6 6 7 9 10 10 11 13 14 15 15 15 15 15 15 15 15 15 15 16 16 16 15 15 16 16 16 16 16 16 15 14 14 13 12 12 11 11 10 10 9 9 9
7 6 5 6 5 6 7 6 8 9 10 11 12 13 13 13 14 13 13 14 14 14 14 15 15 15 15 15 15 15 15 15 15 15 15 15 15 15 14 12 12 11 10 10 9 9 8 8 8
7 6 6 5 5 5 5 6 8 11 10 10 11 12 12 12 12 12 12 13 13 13 13 13 14 14 14 14 14 14 14 15 15 15 15 14 14 13 12 11 11 10 9 9 8 8 7 7 7
7 6 4 4 4 5 6 6 8 10 10 10 9 10 11 11 11 11 11 11 12 12 12 12 13 13 13 14 14 14 14 14 14 14 14 13 13 12 11 10 10 9 8 8 7 7 6 6 6
7 6 5 4 4 5 5 7 9 10 10 9 9 10 10 10 10 10 10 10 10 11 11 11 12 12 13 13 13 13 13 13 13 13 13 12 11 10 10 9 9 8 7 6 6 6 5 5 5
6 6 5 4 4 4 4 6 9 8 9 9 9 10 9 9 9 9 9 9 9 10 10 10 11 11 12 12 12 12 12 12 12 11 11 10 10 9 9 8 7 6 5 5 5 5 4 4 4
Wind_Speed
9 8 3 4 5 3 5 7 5 6 5 3 2 6 8 4 3 3 4 13 17 17 18 22 22 22 21 21 20 20 20 19 19 18 17 15 14 12 11 10 9 9 9 11 13 16 16 14 13
4 4 5 5 4 3 7 7 7 9 7 5 2 6 6 3 2 7 6 13 19 18 19 20 22 22 22 21 20 20 19 19 19 18 17 15 14 12 11 10 10 10 11 13 15 16 15 14 12
2 2 4 5 5 8 8 6 5 6 7 5 1 5 6 7 7 8 10 17 17 15 18 20 23 22 21 20 20 19 19 19 19 18 17 15 14 12 12 12 11 11 12 13 14 14 13 11 9
3 4 4 4 9 10 9 6 5 9 7 2 3 5 3 1 6 9 17 18 16 12 16 21 22 22 21 20 19 19 19 19 18 18 17 16 14 13 13 12 12 12 12 12 12 12 11 9 8
4 4 3 4 10 8 8 8 6 8 6 2 4 5 2 5 6 17 19 19 17 12 15 20 21 21 21 20 19 19 19 19 19 18 17 16 15 14 14 13 12 12 11 11 11 10 9 8 6
3 4 5 8 11 8 9 8 5 9 8 3 5 6 1 3 11 14 16 16 18 16 15 18 20 20 20 19 19 19 19 19 19 18 17 16 15 15 14 13 12 11 11 10 9 9 8 7 5
5 5 7 8 7 8 11 7 6 9 9 7 6 7 3 4 9 12 12 13 14 15 13 14 17 18 19 19 19 19 19 19 19 18 17 16 16 16 15 13 12 11 10 9 9 8 7 6 4
6 5 6 6 7 8 6 3 6 10 11 5 7 10 7 8 9 11 11 11 12 12 13 12 14 15 15 17 18 18 18 18 18 17 17 17 17 16 15 13 12 11 9 9 8 7 6 5 3
5 4 7 8 8 7 4 4 6 4 4 2 3 8 8 11 12 13 11 10 12 13 12 11 11 13 14 15 17 18 18 18 17 16 18 17 16 15 15 14 12 11 10 9 8 6 5 3 2
5 6 8 6 5 3 2 2 6 5 1 2 4 3 7 11 13 15 15 16 16 16 15 13 12 12 13 14 14 14 15 15 15 15 16 15 14 14 14 15 14 12 10 9 7 6 4 2 2
7 8 6 6 5 3 2 3 4 2 2 2 1 4 6 8 11 14 16 16 17 17 16 15 14 13 13 9 11 11 11 12 14 16 16 14 13 12 12 12 11 11 10 7 5 4 3 4 4
5 6 6 5 6 3 2 2 3 3 5 1 2 2 3 5 9 11 14 16 14 16 18 17 16 14 13 12 10 11 9 10 10 14 16 12 8 8 9 9 10 10 8 6 4 4 5 6 6
7 5 5 5 5 5 4 4 4 7 10 5 2 2 4 6 7 7 8 10 12 16 17 17 18 17 15 12 10 11 10 11 13 14 16 15 8 6 7 8 9 10 9 7 6 5 6 6 6
6 6 6 5 4 4 6 6 5 9 9 8 7 6 7 8 9 7 7 8 10 13 16 17 18 18 16 14 13 11 12 13 14 14 16 17 14 10 8 6 7 8 9 9 8 7 6 4 5
3 2 3 5 4 4 3 9 8 10 9 11 12 11 10 10 10 10 10 10 11 11 13 16 19 18 18 17 15 11 13 14 12 14 17 18 16 14 10 6 6 8 11 11 9 7 6 4 4
4 3 3 5 5 6 6 13 9 10 8 12 13 13 13 12 12 12 12 11 10 10 12 15 16 18 19 17 15 11 12 13 12 15 17 18 19 17 12 7 6 11 12 10 5 5 4 4 3
2 4 5 6 6 7 9 10 10 9 9 11 12 12 13 13 13 13 13 12 11 11 12 14 15 17 19 18 15 13 11 12 12 14 14 17 19 18 13 8 8 13 9 5 6 3 4 3 2
6 5 5 6 4 4 8 10 12 8 8 10 12 12 12 14 16 12 12 12 12 10 11 13 14 16 17 15 11 10 11 11 10 11 12 16 17 18 14 9 10 11 7 6 6 5 3 3 2
5 3 4 5 4 3 6 10 14 11 10 13 14 14 14 16 14 11 10 10 10 9 9 11 13 14 13 11 12 13 13 11 11 10 13 16 16 17 13 9 9 8 8 8 8 5 4 3 2
2 2 4 4 4 4 6 12 14 13 13 17 19 18 17 14 12 11 10 9 9 9 9 10 12 13 14 14 15 13 13 10 10 9 10 15 16 17 14 13 11 10 8 9 7 6 4 3 2
5 5 4 3 6 6 6 10 9 9 8 12 15 16 15 16 15 13 11 10 9 9 10 10 12 13 14 13 8 6 4 3 3 7 9 10 14 16 14 13 12 11 10 10 8 7 7 4 2
4 1 3 2 4 5 4 6 9 8 10 9 10 9 11 12 11 9 8 8 9 10 9 9 10 11 12 12 11 14 12 10 10 9 8 9 10 13 15 14 12 11 9 10 8 6 5 6 4
5 4 5 4 4 4 2 4 11 7 7 8 8 7 7 7 6 7 6 7 6 6 5 6 7 9 10 12 15 17 12 9 6 7 9 8 7 9 12 13 12 11 9 10 8 7 6 4 4
7 6 6 5 5 4 5 6 8 6 6 6 7 6 4 3 3 3 3 3 3 4 3 3 5 7 8 11 14 16 15 12 11 10 11 8 6 6 9 10 10 10 9 10 9 8 8 5 5
6 6 3 3 1 7 4 5 10 11 9 8 8 5 3 2 2 1 1 2 3 4 4 4 5 6 7 10 13 15 16 18 18 15 14 12 9 7 10 11 11 10 10 9 9 9 8 7 7
6 7 6 5 4 5 2 7 8 9 7 4 2 2 4 5 4 4 4 4 4 5 5 6 6 7 7 9 11 12 14 13 12 13 13 13 10 8 10 10 10 11 11 11 9 8 7 6 6
7 5 4 3 1 4 6 7 9 4 4 6 7 8 8 7 7 7 8 7 7 8 8 7 8 7 7 8 9 10 12 12 12 11 10 9 9 10 12 12 12 11 11 10 10 7 7 6 5
5 6 5 4 3 4 6 6 5 4 5 7 8 9 9 10 10 10 9 9 9 9 8 7 7 7 6 7 8 9 10 11 12 13 13 13 12 13 14 13 13 12 11 10 9 8 7 6 4
5 4 4 4 3 3 5 7 6 3 3 4 6 8 10 11 12 12 11 10 9 8 7 6 5 5 4 6 8 10 10 11 13 13 14 14 14 15 14 14 13 12 11 10 9 7 7 6 4
6 6 6 5 4 4 3 8 7 5 5 6 9 11 12 12 11 11 11 10 9 7 6 5 4 4 4 7 9 11 12 13 13 13 14 14 15 14 14 14 13 12 10 9 8 7 6 5 4
Wind_Direction
326 345 53 54 57 52 247 246 241 281 289 253 187 135 122 125 178 183 123 140 138 147 154 152 150 146 143 141 140 140 140 140 137 134 132 130 127 125 124 120 115 110 114 118 120 123 124 120 115
345 6 60 67 111 208 253 242 251 246 240 241 173 119 106 103 122 119 126 148 144 148 152 154 151 148 146 144 144 144 144 143 141 138 135 132 129 128 127 125 119 111 111 113 115 115 115 115 112
339 49 97 106 163 199 232 231 258 296 260 228 90 83 118 155 154 153 151 146 143 146 151 156 153 150 149 148 148 148 148 147 145 142 138 134 131 130 129 126 123 116 113 113 114 114 114 114 113
70 69 72 134 221 223 224 242 330 316 293 275 90 67 83 170 175 151 142 144 141 141 148 157 155 153 152 151 151 152 153 152 150 146 142 137 133 132 130 127 126 123 120 119 117 117 118 120 119
73 101 139 217 237 247 250 264 285 279 271 255 110 103 36 355 119 136 144 146 145 143 149 158 157 156 155 154 154 155 155 155 153 151 149 144 138 136 135 134 133 131 129 127 126 125 126 125 121
86 95 153 218 238 257 263 255 261 258 261 251 134 116 116 94 126 143 149 150 149 149 153 161 160 159 158 158 158 158 158 158 157 156 155 150 146 143 143 143 142 140 137 136 135 134 133 131 126
141 144 192 210 234 254 258 252 233 240 244 227 153 120 149 164 152 146 148 147 149 151 155 160 162 163 162 162 162 163 162 161 162 163 162 156 152 152 153 153 152 148 145 143 142 142 140 139 135
162 152 202 210 214 241 254 255 236 220 226 220 138 140 175 195 159 135 136 142 150 156 161 161 163 165 165 166 167 167 165 165 165 164 161 159 159 161 162 162 162 159 156 154 153 150 150 149 137
134 143 207 208 201 235 277 298 298 261 205 159 137 169 181 155 137 130 135 147 161 166 168 167 165 167 168 170 174 171 171 172 169 165 163 162 165 167 169 171 171 169 169 168 166 163 160 154 96
155 189 216 218 197 219 304 318 319 331 210 81 52 87 123 141 146 149 159 167 174 177 178 176 174 172 171 176 176 176 176 177 173 169 167 167 169 172 174 178 178 178 179 180 178 171 167 160 73
181 199 221 261 277 278 285 313 337 348 236 70 97 164 153 161 165 165 172 178 182 181 182 183 182 179 177 178 174 179 179 178 178 177 176 173 173 175 177 178 182 183 184 184 175 147 134 125 104
211 220 212 246 275 276 237 273 320 252 234 277 280 258 194 187 194 186 179 185 183 183 189 186 186 184 184 181 180 182 182 183 185 188 186 176 174 177 176 179 181 182 183 178 166 141 125 112 109
233 252 247 246 269 255 230 223 238 258 265 284 269 222 227 219 226 234 213 192 184 188 193 190 188 188 186 184 184 186 189 191 193 194 194 185 179 181 181 185 183 186 183 170 155 138 122 108 99
219 226 270 276 258 240 232 241 221 249 265 292 290 257 245 241 231 232 234 222 203 198 197 193 193 192 189 189 189 189 192 193 195 199 197 191 187 183 182 180 180 181 177 165 152 140 123 106 97
156 141 310 270 232 225 231 263 228 240 262 277 279 271 251 246 247 237 227 219 212 208 202 196 197 194 193 193 192 192 193 193 195 200 200 193 189 184 181 177 175 173 164 149 134 122 107 94 83
126 126 253 271 228 209 194 257 254 248 252 262 267 270 265 249 242 245 243 233 220 210 207 202 200 197 196 196 195 194 193 193 196 196 198 194 189 183 176 172 170 161 152 143 133 126 103 90 89
139 177 222 275 241 205 201 247 259 251 234 251 261 263 264 264 251 242 245 246 237 217 209 207 202 197 199 199 196 195 192 194 194 193 193 192 187 180 172 167 160 154 146 141 140 123 122 117 111
184 192 218 242 292 211 216 244 263 272 249 252 260 262 263 263 259 248 240 241 242 231 215 209 207 201 200 199 194 193 193 194 192 192 191 185 184 177 167 161 158 154 146 142 135 125 102 109 124
149 166 235 256 322 327 254 260 266 268 268 264 261 257 255 258 261 260 251 246 247 243 227 215 210 207 199 195 192 192 197 196 194 193 189 185 179 173 166 162 160 159 157 155 143 125 115 97 99
221 243 261 283 349 338 289 278 269 255 248 248 253 255 255 257 265 261 255 250 243 243 236 226 217 211 204 200 198 197 193 193 192 188 186 184 177 173 171 165 168 163 151 149 150 138 126 110 89
216 215 235 286 343 0 340 299 276 274 257 254 251 252 253 251 253 256 256 253 250 247 240 233 223 217 211 204 191 165 133 112 154 186 188 185 177 174 170 169 165 164 160 164 161 149 140 141 100
204 208 170 73 31 321 18 304 292 291 302 284 272 260 253 251 247 247 249 253 250 249 246 240 234 224 213 198 184 177 182 185 190 187 182 173 174 172 169 167 163 162 158 157 158 147 141 137 140
146 96 89 84 77 338 268 233 284 304 291 291 292 279 264 256 244 244 244 246 254 259 258 251 243 233 217 200 192 192 194 185 165 155 158 163 164 167 165 163 158 157 153 148 142 136 132 127 139
123 69 58 55 63 291 222 190 279 266 254 301 320 318 294 278 259 260 264 269 282 287 283 268 251 243 223 206 198 196 187 166 157 161 166 164 155 155 159 155 153 149 147 143 139 132 127 121 122
105 95 59 349 292 256 205 197 254 263 266 270 286 311 333 347 357 327 310 313 303 302 295 282 258 250 231 212 204 199 188 176 176 173 172 167 163 163 165 156 150 146 140 134 131 126 124 123 125
145 139 163 200 232 283 252 230 254 271 286 286 307 357 11 4 346 319 301 291 286 288 292 287 266 252 236 216 206 197 185 180 179 174 170 171 169 159 152 145 141 137 134 132 127 123 121 119 119
139 164 155 134 318 283 278 283 296 283 1 15 18 16 358 340 325 312 306 297 284 279 277 269 260 248 235 215 196 186 177 171 164 158 150 147 140 141 142 138 136 133 130 129 125 124 122 124 122
136 142 116 140 184 268 290 273 254 291 351 4 7 354 336 327 317 307 301 294 286 277 271 268 252 236 225 199 181 174 167 160 153 149 148 146 144 143 142 138 135 131 128 127 121 123 125 128 127
147 152 147 147 173 189 286 276 225 233 299 327 330 329 325 318 312 307 303 299 292 286 277 268 256 234 202 176 159 151 150 145 144 147 145 143 142 143 141 138 135 131 128 125 123 125 131 128 125
168 175 152 162 216 197 226 273 269 257 275 303 316 317 313 309 307 305 301 301 300 295 290 274 242 205 178 154 144 141 139 139 140 141 140 139 138 137 135 132 129 126 123 121 124 126 122 123 130
Height
1522 1523 1524 1525 1528 1537 1536 1524 1514 1509 1505 1501 1499 1499 1500 1503 1506 1509 1505 1505 1508 1511 1513 1515 1518 1520 1522 1524 1525 1526 1528 1529 1529 1530 1530 1531 1531 1531 1531 1531 1532 1533 1534 1535 1536 1537 1538 1539 1540
1519 1521 1524 1524 1533 1542 1534 1518 1511 1505 1501 1499 1498 1498 1499 1501 1502 1502 1502 1506 1509 1511 1513 1515 1518 1520 1522 1523 1525 1526 1527 1528 1529 1529 1530 1531 1531 1531 1531 1532 1532 1533 1534 1536 1537 1538 1539 1540 1540
1516 1519 1522 1524 1532 1534 1524 1510 1505 1500 1498 1497 1496 1496 1498 1500 1501 1501 1503 1506 1509 1511 1513 1515 1517 1520 1521 1523 1524 1526 1527 1528 1528 1529 1530 1531 1531 1532 1532 1532 1533 1534 1535 1536 1538 1539 1540 1540 1541
1515 1518 1520 1526 1526 1517 1511 1504 1503 1502 1498 1495 1494 1496 1499 1501 1501 1501 1503 1506 1508 1511 1513 1515 1517 1519 1521 1523 1524 1525 1526 1527 1528 1529 1530 1531 1532 1532 1533 1533 1534 1535 1536 1537 1538 1539 1540 1541 1541
1513 1515 1521 1525 1520 1510 1505 1503 1504 1503 1499 1494 1494 1496 1498 1500 1501 1502 1502 1505 1507 1510 1512 1515 1517 1519 1521 1522 1524 1525 1526 1527 1528 1529 1531 1532 1532 1533 1534 1534 1535 1536 1537 1538 1539 1540 1541 1541 1542
1512 1513 1523 1523 1514 1506 1502 1501 1503 1501 1497 1494 1493 1495 1498 1499 1500 1502 1503 1504 1507 1510 1512 1514 1517 1519 1521 1522 1523 1525 1526 1527 1528 1529 1531 1532 1533 1534 1535 1535 1536 1537 1538 1539 1540 1540 1541 1542 1542
1510 1514 1517 1515 1511 1507 1499 1498 1500 1498 1495 1492 1491 1494 1497 1499 1500 1502 1504 1505 1508 1510 1512 1514 1516 1518 1520 1522 1523 1524 1525 1527 1528 1529 1531 1532 1533 1534 1535 1536 1537 1538 1538 1539 1540 1541 1541 1542 1542
1506 1510 1511 1510 1508 1503 1495 1495 1495 1493 1491 1490 1490 1491 1495 1497 1500 1502 1504 1506 1508 1510 1512 1513 1515 1517 1519 1521 1522 1524 1525 1526 1527 1529 1530 1531 1533 1534 1535 1536 1537 1538 1539 1540 1540 1541 1542 1542 1542
1503 1510 1510 1504 1503 1498 1493 1493 1491 1489 1488 1488 1487 1488 1491 1495 1498 1501 1504 1505 1507 1509 1511 1512 1514 1516 1518 1520 1521 1523 1524 1525 1527 1528 1529 1530 1532 1533 1535 1536 1537 1538 1539 1540 1540 1541 1541 1542 1542
1500 1506 1501 1495 1493 1493 1492 1492 1490 1488 1487 1487 1487 1487 1490 1493 1496 1498 1500 1502 1504 1506 1509 1511 1513 1515 1516 1518 1520 1521 1522 1524 1525 1527 1528 1529 1531 1532 1534 1535 1536 1537 1538 1539 1540 1540 1541 1541 1541
1495 1497 1494 1491 1491 1491 1491 1491 1490 1489 1488 1488 1488 1488 1490 1492 1494 1496 1498 1500 1502 1504 1507 1509 1511 1512 1514 1515 1517 1519 1520 1522 1523 1525 1527 1528 1529 1531 1532 1534 1535 1536 1537 1538 1539 1539 1540 1540 1541
1492 1491 1490 1490 1490 1490 1490 1490 1490 1488 1487 1488 1489 1490 1490 1491 1492 1493 1495 1497 1500 1502 1504 1506 1508 1510 1511 1513 1515 1516 1518 1520 1521 1523 1525 1526 1527 1529 1530 1532 1534 1535 1536 1537 1538 1539 1539 1539 1540
1490 1488 1488 1489 1489 1489 1489 1488 1488 1486 1485 1485 1486 1488 1489 1490 1491 1492 1494 1495 1497 1499 1501 1503 1505 1507 1508 1510 1512 1514 1515 1517 1519 1521 1522 1524 1525 1527 1529 1530 1532 1533 1535 1536 1537 1538 1538 1538 1539
1486 1486 1487 1486 1487 1487 1487 1486 1485 1482 1483 1482 1483 1484 1486 1487 1488 1490 1492 1493 1495 1496 1498 1500 1501 1503 1505 1506 1508 1510 1512 1515 1517 1518 1520 1521 1523 1525 1526 1528 1530 1532 1533 1534 1536 1536 1537 1537 1538
1484 1486 1486 1484 1484 1484 1485 1484 1480 1479 1480 1479 1478 1478 1480 1482 1484 1485 1487 1489 1491 1493 1495 1496 1498 1500 1501 1503 1505 1507 1509 1511 1513 1515 1517 1519 1520 1522 1524 1526 1528 1529 1531 1533 1534 1535 1536 1536 1536
1483 1487 1489 1483 1481 1481 1487 1482 1476 1475 1475 1474 1473 1473 1473 1475 1477 1479 1481 1484 1486 1488 1490 1492 1494 1495 1497 1499 1501 1503 1505 1508 1510 1512 1514 1516 1517 1519 1521 1523 1525 1527 1529 1530 1532 1533 1534 1534 1535
1486 1491 1490 1485 1478 1478 1481 1479 1471 1470 1471 1470 1469 1468 1467 1467 1469 1472 1475 1477 1480 1482 1485 1487 1489 1490 1492 1495 1497 1499 1501 1503 1506 1508 1510 1512 1514 1516 1518 1520 1523 1525 1526 1528 1530 1531 1532 1532 1533
1488 1489 1487 1486 1477 1476 1478 1476 1469 1467 1468 1466 1464 1463 1462 1461 1461 1465 1468 1471 1474 1476 1478 1480 1483 1485 1487 1490 1492 1495 1497 1499 1501 1503 1505 1508 1510 1512 1515 1517 1519 1521 1523 1525 1527 1528 1529 1530 1530
1481 1484 1485 1482 1477 1476 1476 1474 1467 1464 1464 1462 1459 1457 1456 1456 1457 1459 1462 1465 1467 1469 1471 1473 1476 1478 1481 1483 1485 1488 1490 1493 1496 1498 1501 1503 1506 1508 1510 1513 1515 1518 1520 1522 1524 1525 1526 1527 1527
1480 1484 1484 1481 1478 1477 1477 1473 1464 1459 1457 1454 1452 1450 1449 1450 1451 1453 1456 1459 1460 1462 1464 1466 1468 1471 1473 1475 1477 1480 1483 1486 1489 1492 1496 1498 1501 1503 1506 1508 1511 1514 1516 1518 1520 1521 1522 1523 1524
1480 1483 1483 1483 1480 1479 1479 1472 1462 1452 1448 1445 1444 1443 1443 1444 1445 1447 1450 1453 1454 1456 1458 1459 1461 1464 1466 1468 1471 1474 1477 1480 1483 1486 1489 1492 1495 1498 1500 1503 1507 1509 1512 1514 1516 1517 1519 1519 1520
1480 1479 1480 1482 1487 1490 1488 1487 1464 1454 1448 1442 1439 1438 1437 1438 1440 1442 1444 1446 1448 1450 1452 1453 1454 1456 1459 1461 1463 1465 1467 1469 1473 1478 1482 1486 1489 1492 1495 1499 1502 1504 1507 1509 1512 1513 1515 1515 1516
1479 1479 1481 1485 1490 1495 1492 1493 1469 1457 1450 1441 1437 1435 1435 1436 1437 1439 1441 1442 1443 1445 1446 1446 1448 1449 1451 1453 1455 1458 1460 1463 1467 1471 1475 1479 1483 1486 1490 1493 1496 1499 1502 1505 1507 1508 1510 1511 1511
1477 1482 1486 1491 1497 1501 1491 1495 1476 1459 1449 1442 1437 1435 1434 1435 1436 1437 1438 1439 1440 1440 1441 1441 1442 1442 1444 1446 1447 1450 1453 1457 1460 1464 1468 1472 1476 1480 1483 1487 1490 1493 1496 1499 1502 1504 1506 1507 1507
1478 1490 1499 1499 1500 1497 1485 1488 1472 1451 1446 1444 1440 1437 1436 1436 1436 1436 1436 1436 1436 1436 1436 1436 1436 1437 1438 1439 1440 1442 1446 1449 1453 1458 1462 1466 1469 1473 1476 1480 1484 1488 1491 1494 1497 1499 1501 1502 1503
1480 1487 1498 1499 1499 1491 1480 1480 1462 1446 1442 1440 1439 1437 1436 1436 1436 1435 1434 1433 1432 1432 1431 1431 1431 1431 1431 1432 1433 1435 1439 1443 1447 1452 1456 1459 1463 1466 1470 1474 1478 1483 1486 1489 1492 1494 1496 1498 1498
1480 1486 1487 1496 1497 1497 1484 1473 1457 1443 1442 1439 1438 1437 1437 1436 1435 1433 1431 1429 1428 1426 1425 1425 1424 1424 1425 1425 1426 1428 1431 1435 1440 1445 1449 1453 1457 1461 1465 1469 1474 1478 1481 1485 1488 1490 1492 1494 1494
1476 1481 1492 1501 1500 1493 1482 1475 1460 1446 1444 1441 1440 1438 1436 1435 1432 1430 1427 1424 1422 1420 1419 1418 1418 1418 1418 1419 1420 1422 1425 1429 1434 1439 1443 1447 1451 1455 1460 1465 1469 1473 1477 1481 1484 1487 1489 1490 1491
1478 1482 1487 1496 1497 1496 1488 1467 1449 1444 1443 1442 1440 1438 1435 1432 1429 1425 1422 1418 1415 1413 1412 1411 1411 1411 1412 1413 1414 1416 1419 1424 1429 1433 1438 1442 1447 1451 1456 1461 1465 1470 1474 1478 1481 1483 1485 1487 1488
1475 1479 1485 1494 1494 1495 1495 1470 1442 1443 1441 1440 1438 1435 1432 1428 1424 1421 1417 1413 1410 1407 1405 1405 1405 1405 1406 1408 1409 1412 1415 1420 1424 1429 1434 1438 1443 1448 1453 1458 1462 1467 1472 1475 1478 1480 1483 1484 1484